Regional Weather Roundup
Issued by NWS

Home | Current Version | Previous Version | Text Only | Print | Product List | Glossary Off
Versions: 1 2 3 4 5 6 7 8 9 10 11 12 13 14 15 16 17 18 19 20 21 22 23 24 25 26 27 28 29 30 31 32 33 34 35 36 37 38 39 40 41 42 43 44 45 46 47 48 49 50

669
ASUS43 KLMK 160810
RWRKY
KENTUCKY REGIONAL WEATHER ROUNDUP
NATIONAL WEATHER SERVICE LOUISVILLE KY
300 AM EST SAT DEC 16 2017

NOTE "FAIR" INDICATES FEW OR NO CLOUDS BELOW 12,000 FEET
WITH NO SIGNIFICANT WEATHER AND/OR OBSTRUCTIONS TO VISIBILITY.

KYZ001>023-026-027-061>063-070>075-160900-
WESTERN AND SOUTH CENTRAL KENTUCKY

CITY           SKY/WX    TMP DP  RH WIND       PRES   REMARKS
PADUCAH        PTCLDY    36  25  64 SW6       30.14R WCI  31
HENDERSON      CLEAR     33  27  78 S10       30.13R WCI  25
OWENSBORO      CLEAR     32  27  81 S9        30.14R WCI  24
HOPKINSVILLE   PTCLDY    33  24  71 S8        30.17R WCI  26
BOWLING GREEN  CLEAR     32  25  75 S7        30.19S WCI  26
GLASGOW        CLEAR     30  23  76 S5        30.19S WCI  25
$$

KYZ024-025-028>034-038-045-046-053-160900-
NORTH CENTRAL KENTUCKY

CITY           SKY/WX    TMP DP  RH WIND       PRES   REMARKS
LOUISVILLE/SDF CLOUDY    38  24  57 S9        30.13S WCI  31
LOUISVILLE/LOU CLOUDY    35  25  66 S8        30.14R WCI  29
FORT KNOX      CLEAR     34  23  64 S9        30.12R WCI  27
$$

KYZ035>037-039>044-047>052-055>060-089>105-160900-
NORTHEAST KENTUCKY

CITY           SKY/WX    TMP DP  RH WIND       PRES   REMARKS
LEXINGTON      CLOUDY    34  23  64 S12       30.14R WCI  25
COVINGTON      PTCLDY    31  24  75 S9        30.08R WCI  23
FRANKFORT      CLOUDY    36  22  56 SW10      30.13R WCI  28
$$

KYZ054-064>069-076>088-106>120-160900-
SOUTHEAST KENTUCKY

CITY           SKY/WX    TMP DP  RH WIND       PRES   REMARKS
JACKSON        CLEAR     29  20  69 SW5       30.16R WCI  24
LONDON         CLEAR     25  20  81 CALM      30.19R
SOMERSET       CLOUDY    30  21  69 S5        30.22R WCI  25
MIDDLESBORO    CLEAR     26  22  87 CALM      30.22R
MONTICELLO     SUNNY     25  21  85 W10       30.23R WCI  15
$$





USA.gov is the U.S. government's official web portal to all federal, state and local government web resources and services.